Location: Carrières
(48.9495°N, 2.0407°E)
Time: 00:43:40
(UTC+00:00)

CZ-4B R/B - Pass Details

Date: 28 January 2023
Orbit: 809 x 881 km, 99.0° (Epoch: 21 March)

Event Time Altitude Azimuth Distance (km) Brightness Sun altitude
Rises 19:10:13 0° 178° (S) 3,320 6.3 -24.2°
Reaches altitude 10° 19:12:36 10° 183° (S) 2,398 5.6 -24.6°
Maximum altitude 19:17:45 52° 260° (W) 1,023 3.9 -25.5°
Drops below altitude 10° 19:23:02 10° 336° (NNW) 2,451 5.9 -26.3°
Sets 19:25:29 0° 342° (NNW) 3,400 6.6 -26.7°
